Hourly Weather Kozino

Today, 22 October, Thursday

Time Temperature Precipitation Wind Pressure Humidity
00:00 +1°C° 0 mm 2 mps 752 mmHg 92%
01:00 +2°C° 0 mm 1 mps 751 mmHg 92%
02:00 +2°C° 0 mm 1 mps 751 mmHg 93%
03:00 +2°C° 0 mm 1 mps 751 mmHg 94%
04:00 +2°C° 0 mm 1 mps 751 mmHg 94%
05:00 +1°C° 0 mm 2 mps 751 mmHg 94%
06:00 +2°C° 0 mm 2 mps 751 mmHg 94%
07:00 +2°C° 0 mm 2 mps 751 mmHg 92%
08:00 +3°C° 0 mm 2 mps 751 mmHg 90%
09:00 +3°C° 0 mm 2 mps 751 mmHg 88%
10:00 +4°C° 0 mm 2 mps 751 mmHg 86%
11:00 +3°C° 0 mm 3 mps 751 mmHg 84%
12:00 +4°C° 0 mm 3 mps 751 mmHg 82%
13:00 +4°C° 0 mm 3 mps 751 mmHg 80%
14:00 +5°C° 0 mm 3 mps 751 mmHg 78%
15:00 +6°C° 0 mm 4 mps 751 mmHg 76%
16:00 +5°C° 0 mm 4 mps 750 mmHg 79%
17:00 +5°C° 0 mm 3 mps 749 mmHg 82%
18:00 +4°C° 0 mm 3 mps 749 mmHg 85%
19:00 +4°C° 0 mm 4 mps 748 mmHg 85%
20:00 +4°C° 0 mm 4 mps 748 mmHg 86%
21:00 +4°C° 0 mm 4 mps 748 mmHg 86%
22:00 +4°C° 0.4 mm 4 mps 747 mmHg 87%
23:00 +5°C° 0.4 mm 5 mps 746 mmHg 88%

Tomorrow, 23 October, Friday

Time Temperature Precipitation Wind Pressure Humidity
00:00 +5°C° 0.4 mm 5 mps 745 mmHg 89%
01:00 +5°C° 0.2 mm 5 mps 745 mmHg 89%
02:00 +6°C° 0.2 mm 5 mps 744 mmHg 90%
03:00 +6°C° 0.2 mm 5 mps 744 mmHg 91%
04:00 +6°C° 0.1 mm 5 mps 743 mmHg 90%
05:00 +6°C° 0.1 mm 5 mps 743 mmHg 89%
06:00 +7°C° 0.1 mm 5 mps 742 mmHg 87%
07:00 +7°C° 0.1 mm 5 mps 742 mmHg 88%
08:00 +8°C° 0.1 mm 5 mps 742 mmHg 89%
09:00 +8°C° 0.1 mm 5 mps 742 mmHg 90%
10:00 +9°C° 0 mm 6 mps 742 mmHg 85%
11:00 +11°C° 0 mm 6 mps 743 mmHg 80%
12:00 +13°C° 0 mm 6 mps 743 mmHg 76%
13:00 +13°C° 0 mm 6 mps 743 mmHg 75%
14:00 +13°C° 0 mm 6 mps 743 mmHg 75%
15:00 +13°C° 0 mm 6 mps 743 mmHg 75%
16:00 +12°C° 0 mm 5 mps 743 mmHg 78%
17:00 +11°C° 0 mm 4 mps 743 mmHg 80%
18:00 +11°C° 0 mm 4 mps 743 mmHg 83%
19:00 +10°C° 0 mm 4 mps 743 mmHg 85%
20:00 +10°C° 0 mm 3 mps 743 mmHg 86%
21:00 +10°C° 0 mm 3 mps 742 mmHg 88%
22:00 +10°C° 0 mm 4 mps 742 mmHg 88%
23:00 +9°C° 0 mm 5 mps 741 mmHg 88%

Day after tomorrow, 24 October, Saturday

Time Temperature Precipitation Wind Pressure Humidity
00:00 +10°C° 0 mm 5 mps 741 mmHg 88%
01:00 +10°C° 0.2 mm 5 mps 740 mmHg 89%
02:00 +10°C° 0.2 mm 5 mps 740 mmHg 90%
03:00 +10°C° 0.2 mm 5 mps 740 mmHg 90%
04:00 +10°C° 0 mm 5 mps 740 mmHg 90%
05:00 +10°C° 0 mm 5 mps 740 mmHg 90%
06:00 +9°C° 0 mm 5 mps 740 mmHg 90%
07:00 +10°C° 0 mm 5 mps 741 mmHg 88%
08:00 +10°C° 0 mm 5 mps 741 mmHg 87%
09:00 +10°C° 0 mm 6 mps 742 mmHg 86%
10:00 +10°C° 0 mm 5 mps 742 mmHg 81%
11:00 +10°C° 0 mm 5 mps 742 mmHg 77%
12:00 +12°C° 0 mm 5 mps 743 mmHg 72%
13:00 +12°C° 0 mm 5 mps 743 mmHg 72%
14:00 +11°C° 0 mm 4 mps 743 mmHg 71%
15:00 +11°C° 0 mm 4 mps 743 mmHg 70%
16:00 +10°C° 0 mm 3 mps 744 mmHg 74%
17:00 +10°C° 0 mm 3 mps 744 mmHg 78%
18:00 +9°C° 0 mm 2 mps 744 mmHg 82%
19:00 +9°C° 0 mm 2 mps 744 mmHg 83%
20:00 +8°C° 0 mm 2 mps 744 mmHg 85%
21:00 +8°C° 0 mm 2 mps 745 mmHg 86%
22:00 +9°C° 0 mm 1 mps 745 mmHg 87%
23:00 +8°C° 0 mm 1 mps 744 mmHg 88%

, 25 October, Sunday

Time Temperature Precipitation Wind Pressure Humidity
00:00 +8°C° 0 mm 1 mps 744 mmHg 89%
01:00 +8°C° 0 mm 1 mps 744 mmHg 89%
02:00 +6°C° 0 mm 0 mps 744 mmHg 89%
03:00 +6°C° 0 mm 0 mps 744 mmHg 90%
04:00 +7°C° 0 mm 1 mps 744 mmHg 90%
05:00 +7°C° 0 mm 1 mps 744 mmHg 90%
06:00 +8°C° 0 mm 1 mps 743 mmHg 90%
07:00 +8°C° 0.5 mm 1 mps 743 mmHg 91%
08:00 +7°C° 0.5 mm 2 mps 743 mmHg 92%
09:00 +7°C° 0.5 mm 2 mps 742 mmHg 94%
10:00 +7°C° 1.3 mm 3 mps 742 mmHg 94%
11:00 +7°C° 1.3 mm 3 mps 742 mmHg 95%
12:00 +7°C° 1.3 mm 3 mps 741 mmHg 95%
13:00 +6°C° 1.5 mm 4 mps 741 mmHg 95%
14:00 +6°C° 1.5 mm 4 mps 741 mmHg 95%
15:00 +6°C° 1.5 mm 4 mps 741 mmHg 95%
16:00 +6°C° 1.1 mm 5 mps 741 mmHg 94%
17:00 +6°C° 1.1 mm 5 mps 741 mmHg 93%
18:00 +5°C° 1.1 mm 6 mps 741 mmHg 92%
19:00 +5°C° 0.5 mm 6 mps 741 mmHg 91%
20:00 +5°C° 0.5 mm 7 mps 742 mmHg 90%
21:00 +5°C° 0.5 mm 7 mps 742 mmHg 89%
22:00 +5°C° 0.1 mm 7 mps 742 mmHg 88%
23:00 +5°C° 0.1 mm 6 mps 743 mmHg 87%

25 October, Sunday

Time Temperature Precipitation Wind Pressure Humidity
00:00 +8°C° 0 mm 1 mps 744 mmHg 89%
01:00 +8°C° 0 mm 1 mps 744 mmHg 89%
02:00 +6°C° 0 mm 0 mps 744 mmHg 89%
03:00 +6°C° 0 mm 0 mps 744 mmHg 90%
04:00 +7°C° 0 mm 1 mps 744 mmHg 90%
05:00 +7°C° 0 mm 1 mps 744 mmHg 90%
06:00 +8°C° 0 mm 1 mps 743 mmHg 90%
07:00 +8°C° 0.5 mm 1 mps 743 mmHg 91%
08:00 +7°C° 0.5 mm 2 mps 743 mmHg 92%
09:00 +7°C° 0.5 mm 2 mps 742 mmHg 94%
10:00 +7°C° 1.3 mm 3 mps 742 mmHg 94%
11:00 +7°C° 1.3 mm 3 mps 742 mmHg 95%
12:00 +7°C° 1.3 mm 3 mps 741 mmHg 95%
13:00 +6°C° 1.5 mm 4 mps 741 mmHg 95%
14:00 +6°C° 1.5 mm 4 mps 741 mmHg 95%
15:00 +6°C° 1.5 mm 4 mps 741 mmHg 95%
16:00 +6°C° 1.1 mm 5 mps 741 mmHg 94%
17:00 +6°C° 1.1 mm 5 mps 741 mmHg 93%
18:00 +5°C° 1.1 mm 6 mps 741 mmHg 92%
19:00 +5°C° 0.5 mm 6 mps 741 mmHg 91%
20:00 +5°C° 0.5 mm 7 mps 742 mmHg 90%
21:00 +5°C° 0.5 mm 7 mps 742 mmHg 89%
22:00 +5°C° 0.1 mm 7 mps 742 mmHg 88%
23:00 +5°C° 0.1 mm 6 mps 743 mmHg 87%

26 October, Monday

Time Temperature Precipitation Wind Pressure Humidity
00:00 +4°C° 0.1 mm 6 mps 743 mmHg 86%
01:00 +4°C° 0 mm 6 mps 744 mmHg 85%
02:00 +3°C° 0 mm 6 mps 744 mmHg 84%
03:00 +2°C° 0 mm 6 mps 745 mmHg 83%
04:00 +2°C° 0 mm 6 mps 746 mmHg 84%
05:00 +2°C° 0 mm 6 mps 747 mmHg 85%
06:00 +1°C° 0 mm 6 mps 747 mmHg 86%
07:00 +1°C° 0 mm 6 mps 748 mmHg 84%
08:00 +1°C° 0 mm 6 mps 749 mmHg 81%
09:00 +1°C° 0 mm 6 mps 749 mmHg 79%
10:00 +2°C° 0 mm 6 mps 750 mmHg 75%
11:00 +3°C° 0 mm 6 mps 750 mmHg 71%
12:00 +3°C° 0 mm 6 mps 751 mmHg 66%
13:00 +3°C° 0 mm 5 mps 751 mmHg 66%
14:00 +5°C° 0 mm 5 mps 752 mmHg 66%
15:00 +5°C° 0 mm 5 mps 752 mmHg 66%
16:00 +4°C° 0 mm 4 mps 752 mmHg 71%
17:00 +3°C° 0 mm 3 mps 753 mmHg 76%
18:00 +2°C° 0 mm 3 mps 753 mmHg 81%
19:00 +2°C° 0 mm 2 mps 754 mmHg 84%
20:00 +2°C° 0 mm 2 mps 754 mmHg 86%
21:00 +2°C° 0 mm 2 mps 754 mmHg 89%
22:00 +2°C° 0 mm 2 mps 755 mmHg 91%
23:00 +1°C° 0 mm 2 mps 755 mmHg 92%

27 October, Tuesday

Time Temperature Precipitation Wind Pressure Humidity
00:00 +1°C° 0 mm 2 mps 755 mmHg 93%
01:00 +1°C° 0 mm 2 mps 755 mmHg 94%
02:00 +1°C° 0 mm 2 mps 756 mmHg 94%
03:00 +1°C° 0 mm 2 mps 756 mmHg 94%
04:00 -1°C° 0 mm 2 mps 756 mmHg 94%
05:00 -1°C° 0 mm 2 mps 757 mmHg 94%
06:00 -1°C° 0 mm 2 mps 757 mmHg 94%
07:00 -1°C° 0 mm 2 mps 757 mmHg 90%
08:00 +1°C° 0 mm 2 mps 758 mmHg 86%
09:00 +2°C° 0 mm 2 mps 758 mmHg 82%
10:00 +3°C° 0 mm 2 mps 758 mmHg 76%
11:00 +4°C° 0 mm 2 mps 758 mmHg 70%
12:00 +5°C° 0 mm 2 mps 759 mmHg 64%
13:00 +5°C° 0 mm 2 mps 759 mmHg 63%
14:00 +5°C° 0 mm 2 mps 759 mmHg 62%
15:00 +6°C° 0 mm 2 mps 759 mmHg 61%
16:00 +6°C° 0 mm 1 mps 759 mmHg 65%
17:00 +5°C° 0 mm 1 mps 759 mmHg 70%
18:00 +3°C° 0 mm 0 mps 759 mmHg 74%
19:00 +3°C° 0 mm 1 mps 759 mmHg 75%
20:00 +3°C° 0 mm 1 mps 759 mmHg 76%
21:00 +3°C° 0 mm 1 mps 759 mmHg 77%
22:00 +3°C° 0 mm 1 mps 760 mmHg 78%
23:00 +2°C° 0 mm 1 mps 760 mmHg 78%
Show more